{"data":{"norad_id":52607,"intl_designator":"2022-052K","name":"STARLINK-3947","alt_names":[],"object_type":"PAYLOAD","status":"ACTIVE","operator":null,"country":"US","launch_date":"2022-05-14","launch_site_code":"AFETR","launch_vehicle":null,"mission":null,"orbit_class":"UNKNOWN","rcs_meters":null,"size_class":null,"mass_kg":null,"dimensions":null,"purposes":["comms"],"wikipedia_slug":null,"has_3d_model":false,"image_url":null,"decayed_at":null,"tle_current":{"epoch":"2026-05-25T02:59:55.502880Z","epoch_age_seconds":67426,"freshness":"FRESH","line1":"1 52607U 22052K   26145.12494795  .00000217  00000+0  31697-4 0  9999","line2":"2 52607  53.2138 300.9978 0001264 100.5252 259.5882 15.08836214222315","mean_motion":15.08836214,"eccentricity":0.0001264,"inclination_deg":53.2138,"raan_deg":300.9978,"arg_perigee_deg":100.5252,"mean_anomaly_deg":259.5882,"bstar":3.1697e-5,"rev_number":22231,"period_min":95.43779415146,"perigee_km":538.88053973178,"apogee_km":540.62938281959,"semimajor_km":6917.8919612757,"source":"CELESTRAK","updated_at":"2026-05-25T13:38:17.198652Z"}}}